Location: ???? ?????????
(31.1304°N, 31.7111°E)
Time: 18:32:42
(UTC+00:00)

COSMO-SKYMED 1 - Pass Details

Date: 29 October 2020
Orbit: 621 x 623 km, 97.9° (Epoch: 01 December)

Event Time Altitude Azimuth Distance (km) Brightness Sun altitude
Rises 15:28:08 0° 20° (NNE) 2,904 5.7 -5.2°
Reaches altitude 10° 15:30:24 10° 26° (NNE) 1,993 4.8 -5.7°
Maximum altitude 15:34:34 44° 99° (E) 855 2.9 -6.6°
Drops below altitude 10° 15:38:41 10° 172° (S) 1,981 5.2 -7.4°
Sets 15:40:56 0° 179° (S) 2,883 6.1 -7.9°
